Location: Civry
(47.2902°N, 4.6156°E)
Time: 18:18:51
(UTC+00:00)

Cosmos 468 Rocket - Pass Details

Date: 09 April 2020
Orbit: 745 x 779 km, 74.0° (Epoch: 03 June)

Event Time Altitude Azimuth Distance (km) Brightness Sun altitude
Rises 20:33:34 0° 336° (NNW) 3,217 8.3 -20.7°
Reaches altitude 10° 20:35:57 10° 336° (NNW) 2,284 7.4 -21.0°
Maximum altitude 20:41:08 82° 250° (WSW) 761 3.9 -21.7°
Enters shadow 20:42:42 46° 168° (SSE) 1,003 4.2 -21.9°
